Temp
21 21 21 21 24 22 23 24 21 24 25 26 25 27 28 27 28 29 22 24 23 25 25 24 23 23 23 23 23 23 23 23 23 22 22 22 22 21 20 20 20 20 20 20 20 20 20 20 20
20 20 20 20 24 24 26 22 23 24 25 25 26 26 27 29 28 28 24 21 23 25 25 24 23 23 23 23 23 23 23 23 22 22 22 22 21 21 20 20 20 20 20 20 20 20 20 20 20
20 20 22 22 21 26 26 23 24 23 24 24 27 27 28 28 28 26 23 23 20 23 24 23 23 23 22 22 22 22 22 22 22 22 21 21 21 21 20 20 20 20 20 20 20 20 20 20 20
19 20 19 22 22 23 23 24 22 24 25 25 26 27 28 28 26 24 23 22 20 21 24 24 23 23 22 22 22 22 22 22 22 22 21 21 21 21 20 20 20 20 20 20 20 20 20 20 19
17 19 21 20 21 21 21 21 23 24 24 24 26 27 27 26 22 21 23 22 20 20 23 24 23 23 22 22 22 22 22 22 22 22 21 21 21 20 20 20 20 20 20 20 20 20 20 20 19
21 18 20 21 21 21 23 22 23 24 24 25 25 26 27 23 22 21 19 22 20 20 21 23 23 23 22 22 22 22 22 22 22 22 21 21 21 20 20 20 20 19 20 20 20 20 20 19 19
20 19 20 19 20 22 24 22 23 24 25 26 26 26 27 26 22 22 20 18 21 20 21 22 22 22 22 21 21 21 21 22 22 21 21 21 21 20 20 20 20 20 20 20 20 19 19 19 19
18 19 18 18 21 22 23 23 24 24 24 25 25 26 26 25 22 21 20 19 18 20 21 21 20 20 20 21 21 21 21 21 21 21 21 21 20 20 20 20 20 20 20 20 20 19 19 19 19
17 19 18 20 20 22 22 22 23 23 23 24 25 25 25 22 21 19 18 18 18 19 20 20 19 19 20 20 20 21 21 21 21 21 21 20 20 20 19 19 19 19 19 20 20 20 19 18 18
19 18 18 19 20 19 19 20 20 21 22 22 22 23 24 21 20 21 21 21 18 17 17 18 18 18 18 18 19 19 19 19 19 20 20 20 20 19 18 19 19 19 19 19 20 19 19 18 18
15 18 17 18 17 16 17 18 20 19 21 22 22 22 23 24 24 21 21 21 20 19 17 17 17 18 18 18 18 18 18 18 18 18 19 18 19 19 19 19 18 18 18 18 18 18 18 18 18
15 15 16 16 15 15 16 17 18 19 19 21 21 21 22 23 24 24 22 21 20 19 18 17 17 17 17 17 17 18 18 18 17 18 19 18 18 18 18 18 18 18 18 18 17 17 17 19 18
14 14 14 15 15 15 16 16 17 18 19 20 20 20 21 22 23 24 23 23 21 20 18 17 16 17 17 17 17 17 17 18 18 18 17 19 18 18 18 18 17 18 17 17 17 17 17 18 18
13 14 14 15 15 16 15 16 16 19 20 20 20 21 21 22 22 23 24 23 21 21 19 17 16 16 16 17 17 17 17 17 18 18 18 18 17 17 18 18 17 17 17 17 17 18 17 17 17
13 13 14 15 15 15 16 17 17 19 18 18 18 18 19 20 21 22 23 23 22 21 21 18 16 16 16 16 17 17 17 17 17 17 18 18 18 17 17 17 17 17 18 17 17 17 17 17 17
13 13 14 16 16 16 16 17 19 17 17 17 18 18 18 18 19 20 22 23 23 22 21 19 18 16 17 16 16 17 16 16 16 17 17 18 18 18 17 17 17 17 18 17 17 16 16 16 16
12 14 13 14 15 15 15 16 17 18 17 16 16 17 17 18 19 19 20 21 23 23 21 19 18 17 16 16 16 16 16 16 16 16 16 17 18 18 17 17 17 19 18 17 16 16 16 15 15
13 13 13 13 14 14 14 14 15 16 15 15 16 16 16 17 18 19 19 20 22 23 21 20 19 18 17 16 16 16 16 16 16 16 16 17 17 17 17 17 19 19 17 17 16 16 16 16 16
12 12 12 13 14 13 13 14 15 15 15 15 15 15 16 16 18 18 18 19 21 22 21 20 19 18 17 17 16 16 16 16 16 16 16 16 17 17 17 16 17 18 18 18 17 16 15 15 15
11 11 12 13 14 14 14 13 14 15 15 15 15 16 16 16 16 17 18 19 20 21 21 20 19 19 18 18 17 18 17 17 17 16 16 16 16 17 18 18 18 18 17 16 16 16 15 15 15
12 11 12 12 13 13 12 14 17 17 16 17 16 16 15 16 16 17 17 19 20 20 21 20 20 20 18 18 18 18 17 17 16 16 16 16 16 17 17 17 18 18 17 16 16 16 16 15 15
11 12 12 12 11 11 13 10 15 18 17 17 16 16 15 16 16 16 17 18 20 19 19 21 20 20 19 18 18 18 18 18 17 18 16 16 16 16 16 16 16 17 17 16 16 16 16 16 15
11 12 12 12 11 10 13 10 16 18 17 16 16 16 14 15 17 17 17 18 14 13 16 17 17 18 18 18 18 18 18 18 18 17 16 16 17 16 16 16 16 16 16 16 16 16 16 16 16
13 12 12 11 9 9 12 12 16 15 10 10 13 11 10 12 15 14 12 11 11 10 11 11 12 11 15 16 17 17 17 16 16 16 16 16 16 16 18 18 19 15 17 16 17 16 16 16 16
12 12 12 12 11 14 14 14 16 11 9 8 9 7 7 7 7 8 8 9 9 9 9 9 10 9 10 12 13 14 14 15 15 15 15 15 15 17 20 20 19 18 16 16 17 16 15 16 15
12 10 12 11 13 14 15 14 13 11 8 6 7 5 7 6 6 6 6 6 6 7 7 7 8 7 7 8 8 10 12 13 12 12 13 13 14 15 17 18 20 18 16 17 16 16 16 15 15
10 10 12 10 12 11 14 13 12 10 8 6 5 5 4 5 6 5 5 4 5 4 4 4 5 5 5 5 6 8 8 9 9 10 12 13 13 13 13 14 15 15 16 16 15 15 16 16 15
12 12 11 11 11 12 15 11 9 7 6 6 5 4 3 4 5 5 4 4 3 3 3 3 3 3 3 4 4 4 5 6 6 8 9 11 12 13 13 13 13 13 14 15 15 15 15 14 15
12 12 11 11 11 12 13 10 6 6 6 5 4 3 3 3 3 3 4 3 2 2 2 2 2 2 2 2 3 3 3 4 5 5 6 8 9 9 10 11 11 11 12 14 14 14 14 14 14
12 11 11 11 12 13 12 8 6 5 5 4 4 3 2 2 2 2 2 2 1 1 1 1 1 1 1 1 2 2 2 3 4 4 5 5 6 6 6 7 8 9 11 13 13 14 14 14 14
Height
792 793 793 792 803 810 811 799 796 790 785 774 773 772 768 764 766 770 743 741 745 745 752 759 764 769 774 778 780 782 785 788 791 793 795 798 800 802 806 808 811 814 817 818 819 820 822 823 824
792 793 794 798 805 808 793 795 791 784 776 772 766 766 766 762 751 745 744 745 746 746 751 758 763 768 773 778 782 783 785 789 791 794 796 798 801 804 807 810 812 815 817 818 819 821 822 824 825
792 792 795 800 811 794 787 788 781 779 775 773 767 761 760 759 749 747 743 746 748 748 752 758 763 768 774 777 782 785 787 788 792 794 797 799 802 805 809 811 813 815 818 819 820 822 823 824 826
792 795 804 804 802 790 789 781 782 777 773 771 769 769 757 749 749 746 743 747 752 751 753 759 764 769 774 779 783 785 788 789 791 795 796 800 802 806 809 812 814 816 818 819 821 822 824 825 827
793 797 803 809 803 794 788 783 780 777 778 774 769 768 763 751 750 748 745 748 752 755 755 759 764 769 774 779 783 786 788 790 792 795 797 800 802 806 809 812 814 817 819 820 821 823 824 826 828
794 799 805 804 801 790 779 778 778 775 772 770 769 766 759 754 751 750 750 749 752 755 758 758 763 768 774 779 782 785 787 789 793 794 797 800 803 806 809 812 814 817 820 821 822 824 825 827 829
796 799 801 805 802 792 779 775 777 773 770 767 764 767 754 751 752 751 751 752 750 753 758 761 764 768 773 779 784 786 787 788 791 796 798 800 803 806 809 812 815 817 819 821 823 825 826 827 830
796 799 808 804 798 790 777 773 769 770 769 765 763 766 760 753 752 751 751 752 753 754 756 760 764 768 772 776 781 786 788 789 790 794 798 801 804 806 809 812 815 817 820 821 823 825 827 828 831
797 801 803 797 796 783 778 776 768 767 770 767 765 764 759 756 754 753 753 753 754 754 755 758 762 766 770 774 778 784 788 789 791 791 796 800 803 806 809 811 815 817 820 821 822 824 827 829 831
794 801 796 789 786 787 786 783 777 771 770 770 765 760 759 757 757 755 753 752 752 752 753 756 759 763 768 771 775 781 785 790 791 793 795 797 800 803 807 810 814 817 820 822 823 824 826 829 831
800 794 794 791 792 794 791 785 777 770 770 765 764 761 760 757 754 754 752 752 752 755 759 757 758 760 764 768 771 775 781 785 789 791 793 796 799 802 805 808 813 816 820 822 823 825 826 827 830
800 795 796 795 796 795 790 786 777 771 767 764 761 758 757 756 750 748 747 747 751 752 755 758 761 759 760 764 769 770 774 779 784 786 790 794 797 800 802 806 810 813 816 819 821 823 825 826 828
797 797 798 796 794 791 786 781 775 760 759 757 755 753 748 748 746 742 741 741 744 747 752 755 759 761 759 761 765 768 769 774 779 783 786 789 792 796 800 803 806 810 813 816 817 820 823 825 827
799 797 793 790 787 785 784 776 773 756 752 750 749 747 744 741 741 736 734 735 736 739 744 749 752 755 756 757 762 765 768 771 775 779 782 786 789 791 795 799 803 807 810 813 816 816 820 823 825
798 794 790 782 784 783 777 762 759 752 753 750 749 748 743 741 736 731 729 729 731 731 733 738 745 750 752 754 757 761 763 769 772 774 777 781 785 788 791 794 799 804 807 810 814 816 818 820 823
797 797 789 783 779 778 778 744 748 753 752 749 746 740 738 736 734 730 727 724 724 725 727 728 733 742 747 749 753 758 762 763 768 770 773 776 780 784 787 790 794 799 803 807 811 813 816 818 820
803 788 794 786 780 781 779 750 749 748 750 744 742 739 730 721 720 724 723 717 714 714 718 720 724 731 739 745 749 752 756 758 761 766 768 771 775 779 783 786 790 794 798 802 806 809 812 814 816
797 797 788 788 782 782 779 764 739 745 743 735 733 731 728 719 700 714 712 709 707 706 706 711 715 721 730 738 744 749 752 756 757 759 763 766 769 773 778 782 784 789 793 797 801 805 808 810 813
805 800 793 777 773 783 772 763 743 721 734 728 721 715 712 709 699 703 702 699 697 698 697 700 707 714 723 730 735 741 742 749 754 756 759 762 765 767 772 777 781 783 785 788 794 800 803 805 809
806 801 790 770 767 777 759 756 729 720 712 715 708 701 697 693 689 686 688 687 684 685 690 693 696 701 712 721 726 731 735 740 747 752 754 755 760 763 767 769 774 778 781 784 788 792 797 801 803
798 797 785 785 766 764 763 740 704 699 702 694 690 692 688 682 679 679 676 676 675 676 677 681 686 691 698 710 721 727 731 738 741 742 746 749 754 758 762 765 767 771 774 776 780 785 789 793 798
799 784 783 783 784 768 761 761 705 685 686 690 684 680 676 670 665 667 666 668 665 667 671 673 679 685 691 702 711 715 715 723 726 733 740 744 750 755 761 767 770 773 771 773 774 779 784 788 790
788 786 781 777 779 782 755 769 697 692 684 679 679 671 669 654 647 654 660 662 667 664 665 669 674 682 688 696 703 711 714 719 724 730 737 742 745 750 754 759 769 771 773 772 772 775 777 780 783
779 781 773 775 786 787 755 749 695 710 730 707 682 686 680 656 645 657 666 670 669 668 667 668 671 679 684 694 701 707 710 714 721 727 732 736 739 744 746 750 748 766 772 770 766 768 769 773 774
783 782 767 763 770 739 736 734 714 735 735 726 708 706 696 689 679 679 678 678 678 679 672 675 677 683 687 693 702 704 709 712 719 725 729 733 737 739 737 742 747 759 764 764 761 762 763 764 768
781 791 777 773 752 735 728 730 725 742 745 742 728 723 705 700 694 690 690 690 690 691 675 683 681 689 694 699 705 708 710 713 718 723 727 731 736 738 737 738 737 744 750 753 755 755 754 756 759
786 785 775 781 760 760 730 730 733 745 744 744 738 729 717 714 707 705 704 701 706 697 689 692 699 702 703 707 709 711 716 717 720 723 724 726 730 734 736 734 734 737 743 745 746 746 747 747 750
779 778 774 775 768 746 723 743 760 761 757 754 746 743 735 731 724 718 711 711 712 705 705 712 708 716 714 717 713 719 719 723 724 722 723 722 724 726 727 728 729 731 735 737 737 738 739 739 741
776 774 778 779 768 750 736 760 785 779 772 767 762 752 750 745 739 735 729 725 722 720 720 721 725 728 718 725 720 718 730 724 718 724 723 719 720 720 721 721 722 725 728 729 729 729 730 731 732
777 778 779 774 753 750 743 777 788 786 782 776 771 764 762 758 753 748 743 738 734 734 733 733 733 729 731 733 732 730 723 720 721 717 717 718 718 717 719 718 717 718 719 720 721 720 721 722 723
Wind_Speed
1 2 3 3 2 1 3 5 3 3 2 3 6 6 5 2 4 3 9 12 19 35 38 36 34 31 29 27 27 28 28 31 32 32 32 30 28 27 27 26 24 22 21 20 18 17 16 16 15
4 4 3 2 3 2 4 3 10 6 3 12 6 3 4 4 5 9 3 13 24 37 39 37 35 33 30 27 27 28 29 31 32 32 30 29 28 27 26 25 24 22 20 19 18 17 17 16 15
4 3 1 2 2 7 5 6 5 2 7 4 5 2 4 4 4 4 4 17 23 35 38 36 36 33 30 28 28 28 29 31 32 31 30 29 28 26 26 25 24 22 20 18 18 17 16 15 15
2 2 3 3 9 7 3 2 1 9 3 1 5 8 5 6 4 3 4 18 20 30 36 36 35 32 29 28 27 29 29 31 31 30 29 29 28 27 25 23 22 21 20 19 18 18 18 17 17
4 2 2 3 7 8 5 5 5 11 9 5 11 6 9 6 10 4 12 18 22 27 33 36 34 32 30 29 28 28 29 29 30 30 29 29 28 27 25 24 22 20 20 20 19 19 18 17 17
2 1 3 6 8 8 9 5 4 7 5 7 4 6 6 7 12 5 6 19 21 27 29 35 33 31 31 30 30 29 29 29 29 29 29 29 28 27 25 24 22 21 20 20 19 19 18 18 17
1 2 3 2 3 7 9 0 5 9 12 10 2 7 4 9 14 6 9 13 25 27 29 30 32 31 30 30 29 29 29 30 29 28 28 28 27 26 25 23 22 20 20 20 19 18 16 17 16
3 1 1 2 5 9 7 5 6 8 10 6 3 3 6 12 15 5 9 13 18 26 28 29 29 28 29 30 29 29 29 30 30 29 28 27 26 25 25 23 20 20 20 20 19 18 16 16 15
3 3 5 6 7 6 6 11 10 8 11 10 6 10 14 16 13 4 5 10 15 23 27 29 28 28 28 29 30 29 29 29 29 30 29 27 26 25 24 23 22 20 20 21 20 18 16 15 14
4 4 7 4 3 5 8 12 15 10 14 15 15 11 11 8 8 9 11 17 19 22 26 26 27 27 25 24 28 29 28 27 28 28 30 29 28 26 23 23 22 20 20 20 19 18 17 15 15
2 5 3 1 4 8 8 15 12 18 16 9 10 14 15 22 20 13 15 19 21 16 20 23 26 27 27 24 28 32 27 25 24 27 28 26 27 26 25 24 21 20 20 18 19 18 16 16 16
4 6 2 4 5 9 12 12 17 23 21 18 18 19 20 18 20 19 18 21 20 17 23 21 23 26 28 24 25 28 31 29 29 30 32 27 24 25 23 21 21 20 20 19 18 18 16 16 15
6 3 7 9 16 15 16 20 21 28 24 24 25 22 21 20 22 27 24 21 22 21 22 24 23 24 26 25 26 26 30 32 31 30 34 33 29 28 27 22 22 21 20 20 20 18 18 16 15
3 10 15 12 14 12 16 18 10 6 17 19 18 20 21 18 18 27 27 23 23 27 25 26 27 27 27 26 26 24 26 30 30 32 34 32 29 28 29 27 22 21 21 20 20 21 18 16 15
6 11 9 8 1 3 8 17 17 15 7 11 14 14 17 18 22 25 30 25 26 28 32 32 32 29 31 28 27 25 26 25 29 28 32 35 30 27 29 29 25 21 25 23 22 20 19 16 15
5 3 5 1 13 4 3 21 12 4 11 18 23 25 23 21 21 26 28 29 28 30 29 37 38 35 32 30 27 26 26 27 27 28 26 35 33 27 27 28 30 24 25 24 22 20 18 16 15
4 8 9 9 6 6 6 25 5 15 26 28 24 23 25 26 26 28 28 33 32 32 34 35 39 41 38 32 28 27 26 27 26 26 28 31 35 30 29 28 29 28 25 25 22 22 18 17 16
6 9 8 14 2 8 18 30 33 27 25 27 26 25 24 28 32 28 29 34 34 33 36 38 40 42 42 33 28 25 25 27 27 28 31 33 35 35 31 29 27 27 25 25 23 21 21 18 16
7 13 17 23 18 17 22 26 30 34 24 28 27 27 26 27 31 35 31 32 33 33 36 37 36 37 36 34 32 29 30 26 26 26 26 29 32 34 33 24 24 28 32 32 28 23 20 18 19
7 13 18 24 13 14 22 24 34 31 30 27 29 29 28 28 28 29 31 33 33 32 33 36 39 39 39 36 35 29 30 27 26 25 26 28 28 32 32 32 31 30 29 29 29 26 20 17 23
9 11 17 16 26 21 12 17 19 24 19 22 24 27 28 29 28 27 25 29 34 27 34 37 39 40 41 37 31 24 17 17 21 26 26 29 29 30 30 30 33 34 33 31 32 30 23 19 24
10 12 16 13 14 10 12 9 24 21 24 21 23 22 25 28 30 26 27 21 26 24 28 33 33 36 36 36 32 34 31 23 26 25 25 23 25 24 21 20 24 29 31 30 32 33 30 21 19
8 6 14 18 16 13 4 5 12 25 26 26 24 24 21 25 25 24 22 23 5 6 14 22 21 22 25 32 31 30 25 20 18 20 20 24 24 23 22 15 12 23 28 28 30 31 31 28 22
11 10 18 6 2 5 7 3 20 15 22 23 23 16 18 21 4 11 14 15 17 18 20 21 25 20 21 22 21 23 21 15 14 16 24 22 24 25 24 16 10 34 32 32 32 33 33 30 28
1 11 5 2 3 6 7 12 8 19 19 21 18 17 18 19 18 18 18 16 21 20 26 25 28 26 25 24 20 19 16 15 12 9 13 18 17 21 23 33 29 26 38 38 35 33 32 31 30
8 4 3 5 5 13 13 4 5 21 16 19 17 15 18 19 18 20 20 18 23 22 33 29 31 28 26 25 20 18 15 12 8 7 8 9 11 11 21 33 27 33 37 42 38 34 32 32 32
1 4 3 4 9 5 4 3 4 25 22 18 19 20 20 20 19 19 19 23 24 28 33 31 27 25 24 20 20 18 12 10 5 1 3 6 8 11 13 14 20 26 34 38 37 34 32 30 33
2 5 2 3 5 7 5 4 11 21 22 22 19 20 20 19 19 18 19 23 26 30 30 27 29 23 21 18 18 13 13 9 5 5 4 4 8 12 14 16 18 19 26 30 33 34 33 30 29
5 4 4 3 4 4 6 4 10 14 15 17 18 19 20 19 18 17 16 24 26 26 27 27 24 20 24 19 18 17 9 10 12 7 9 10 12 13 15 17 18 21 24 27 30 32 32 32 29
5 8 4 4 3 5 7 3 9 12 13 14 15 17 16 13 14 14 17 23 25 24 24 23 22 24 22 18 15 14 16 16 15 16 15 14 16 17 16 17 18 20 22 25 29 30 32 31 29
Wind_Direction
265 175 158 42 169 58 254 249 289 249 233 195 290 219 223 283 204 226 328 210 169 164 169 174 175 175 174 170 164 160 160 162 161 159 157 156 153 150 151 148 148 147 143 141 140 140 138 137 137
144 140 61 88 145 179 265 242 240 226 260 309 304 245 215 265 256 282 327 177 173 167 169 173 177 176 175 172 168 163 160 161 160 159 158 157 155 155 154 153 151 150 148 145 144 143 142 140 138
135 110 164 115 161 218 223 207 228 228 282 283 334 292 315 297 291 267 265 180 172 168 171 174 178 177 177 174 171 166 163 160 162 161 160 158 158 156 157 156 154 153 151 148 147 148 147 144 143
137 80 85 210 219 252 273 360 291 325 14 58 352 311 302 279 304 291 182 177 171 170 172 176 179 179 178 177 175 171 167 164 163 163 162 161 160 158 159 159 157 156 154 152 152 149 147 144 144
62 91 171 205 245 273 253 275 307 301 304 292 313 305 294 345 346 328 162 173 178 177 176 178 181 181 181 181 180 175 171 168 167 166 164 163 161 160 161 161 160 158 156 154 152 150 149 147 146
118 79 190 229 241 264 279 264 277 281 281 303 289 299 290 12 4 346 187 181 182 179 179 179 182 184 185 186 184 179 175 172 170 168 168 166 164 162 161 160 159 157 156 156 154 154 152 151 148
121 159 237 223 272 289 288 319 263 278 281 294 295 295 279 4 348 310 208 192 187 184 183 181 182 186 187 188 188 184 180 176 173 173 171 170 168 165 165 165 163 160 157 159 158 158 158 156 155
105 140 230 236 262 272 275 302 299 284 289 316 323 284 312 339 342 300 218 201 191 189 186 185 184 186 187 189 190 190 186 182 178 177 176 174 172 171 170 170 170 166 163 162 162 164 166 165 166
132 214 239 245 243 277 317 312 298 303 282 294 303 307 308 330 324 284 206 196 201 196 191 189 187 187 188 189 190 192 192 187 185 180 180 177 176 177 176 177 178 176 170 168 166 168 172 173 174
196 202 222 225 255 300 319 319 309 294 296 298 283 280 307 328 317 280 236 218 207 204 194 193 190 188 186 187 190 191 192 192 187 186 184 183 183 182 181 182 183 182 178 176 174 169 175 179 180
118 230 203 230 9 359 322 299 303 288 285 287 308 306 305 309 301 273 259 238 226 213 209 198 192 189 186 187 189 192 191 192 193 191 189 190 187 187 187 184 185 186 184 180 181 180 178 189 190
275 246 252 299 333 321 296 296 280 274 276 280 286 293 295 284 282 273 252 243 224 216 209 208 204 191 187 186 189 188 190 192 194 195 196 193 192 191 190 188 188 188 187 186 186 188 190 193 198
224 266 300 284 291 283 272 261 263 275 278 271 276 274 274 272 269 271 261 252 225 220 214 208 205 202 189 188 187 188 189 191 193 195 198 198 196 197 197 195 193 194 193 192 190 190 194 198 202
343 293 289 286 265 269 276 283 270 276 282 280 277 283 283 279 268 272 268 249 224 222 215 208 206 205 194 193 191 191 189 192 194 197 199 200 199 198 201 201 201 200 197 196 195 196 197 201 205
291 301 319 280 339 254 312 267 245 279 305 313 321 316 308 303 287 265 267 261 244 227 215 209 209 206 201 197 193 190 189 191 195 197 202 202 202 200 204 205 205 204 204 203 203 202 203 205 210
320 304 340 184 331 275 315 284 310 355 343 314 307 302 294 288 289 289 274 267 255 240 218 211 207 207 204 199 195 195 196 192 197 199 199 204 201 202 204 206 210 207 208 206 205 204 204 205 208
21 302 294 300 201 319 250 293 313 296 301 289 283 277 284 282 274 272 277 271 257 240 221 210 203 205 205 201 199 197 198 197 198 200 200 202 205 205 205 210 215 210 209 209 206 207 205 204 208
311 301 276 282 234 300 287 279 287 285 280 275 278 276 269 274 269 271 264 269 262 244 220 212 204 203 205 202 200 204 204 207 205 202 208 206 206 208 207 211 213 208 208 210 207 208 209 212 211
281 274 282 280 288 296 277 282 290 285 279 279 273 267 263 259 268 268 260 260 266 247 221 208 201 200 199 197 197 202 206 207 214 213 210 211 210 211 209 209 208 209 211 214 212 206 208 207 213
270 283 280 288 294 310 294 289 277 284 284 276 275 272 267 260 256 263 259 249 254 242 223 210 204 196 198 200 205 203 207 212 218 220 219 214 212 214 213 215 213 214 214 213 211 201 202 206 210
263 260 282 274 312 307 299 288 278 283 283 293 276 265 266 261 259 257 256 244 252 236 221 211 204 200 195 199 200 197 192 212 208 218 218 217 215 218 218 217 217 214 214 208 213 209 201 192 208
280 257 270 286 313 305 5 295 308 320 304 310 290 283 264 261 257 248 252 252 251 240 219 214 206 199 195 191 193 192 191 200 213 215 213 214 213 213 216 217 222 222 216 215 212 215 209 204 191
245 231 283 282 285 300 311 259 288 318 327 320 311 311 316 287 245 243 246 248 205 154 179 181 167 181 186 188 193 195 195 201 202 199 200 204 203 205 202 192 264 240 231 222 219 218 211 212 205
278 314 296 287 256 259 236 279 310 357 326 309 309 15 12 24 102 80 87 94 85 91 95 108 113 106 138 163 181 191 191 181 175 181 190 189 183 184 190 209 252 286 259 236 234 224 218 215 214
114 328 309 284 216 261 209 315 332 351 352 353 21 18 31 39 55 67 65 65 64 74 85 84 92 82 95 112 123 135 143 152 157 165 183 180 182 195 206 213 217 239 252 252 249 226 224 221 217
292 247 288 302 305 300 309 263 343 0 353 353 10 9 34 39 42 49 54 56 54 56 69 69 72 74 76 85 87 93 104 116 135 156 172 176 190 210 199 201 213 228 236 246 236 229 229 224 221
70 220 294 266 264 282 293 313 248 357 1 2 6 11 18 26 36 41 44 46 48 49 51 55 60 63 62 65 72 75 77 85 87 153 194 216 228 232 224 227 233 239 239 236 234 227 224 219 220
264 320 308 215 302 299 295 52 330 352 5 1 8 14 13 15 27 35 36 37 38 43 46 49 54 49 53 52 59 55 55 54 47 23 336 304 274 272 266 256 238 240 242 240 234 229 230 220 221
342 315 293 271 242 284 315 68 353 352 4 10 7 20 15 14 18 26 31 34 36 41 43 45 48 40 43 34 39 44 25 37 32 4 347 333 308 296 283 273 264 253 248 247 242 234 230 225 221
349 333 289 255 287 266 266 81 356 2 7 16 13 18 19 15 14 16 24 30 32 33 38 41 42 44 41 30 29 29 24 24 15 1 347 333 315 301 288 279 269 258 253 247 244 236 229 226 223